Вернуться в каталог

DELTA 1 DEB

АктивенSSO
NORAD 37652·DEBRIS·🇺🇸 United States

Запущен Mar 5, 1978 с Vandenberg Space Force Base

Loading…

Ближайшие Пролёты (ближайшие 24 часа)

TLE

УстаревающийSource: Space-Track

Эпоха: Sep 8, 2026, 02:44 UTC

1 37652U 78026JP  26251.11399510  .00000526  00000-0  25977-3 0  9997
2 37652  98.8402 210.3919 0025042 188.9590 171.1144 14.21551228153845

Отслеживайте DELTA 1 DEB в реальном времени с AllMySat

Download on the App Store